This demonstration page uses our WeatherBlox Daily Observations layout. Learn more.

Left ArrowRight Arrow

38.80484, -77.04692

Hourly Observations for February 24, 2016

Temp ( °F °C ) Dew Point ( °F °C ) Humidity (%) Winds ( mph kmh ) Pressure ( in mb ) Visibility ( mi km ) Precip ( " mm )
12:04 am 00:04 Cloudy with Drizzle 43 6 41 5 93 93 NE 9 15 30.06 1018 3 4 0.00 0.00
12:26 am 00:26 Cloudy with Drizzle 43 6 41 5 93 93 NE 8 13 30.03 1017 3 5 0.00 0.00
12:47 am 00:47 Cloudy with Drizzle 43 6 41 5 93 93 NE 7 11 30.03 1017 4 6 0.00 0.03
12:52 am 00:52 Cloudy with Drizzle 42 5.6 41 5 96 96 NE 9 15 30.03 1017 4 6 0.00 0.03
1:52 am 01:52 Cloudy with Drizzle 42 5.6 41 5 96 96 NNE 9 15 30.02 1017 3 5 0.00 0.03
2:04 am 02:04 Cloudy with Drizzle 43 6 41 5 93 93 NNE 9 15 30.00 1016 3 4 0.00 0.00
2:30 am 02:30 Cloudy with Drizzle 43 6 39 4 87 87 NNE 9 15 30.00 1016 4 6 0.00 0.00
2:47 am 02:47 Cloudy with Drizzle 43 6 39 4 87 87 NE 9 15 29.97 1015 3 5 0.01 0.25
2:52 am 02:52 Cloudy with Drizzle 42 5.6 40 4.4 92 92 NNE 8 13 29.98 1015 3 5 0.01 0.25
3:52 am 03:52 Cloudy with Light Rain 42 5.6 40 4.4 92 92 NNE 9 15 29.96 1014 3 5 0.02 0.51
4:52 am 04:52 Cloudy with Drizzle 42 5.6 40 4.4 92 92 NE 8 13 29.92 1013 9 14 0.00 0.03
5:52 am 05:52 Cloudy with Drizzle 42 5.6 40 4.4 92 92 NNE 8 13 29.90 1013 3 5 0.01 0.25
5:54 am 05:54 Cloudy with Drizzle 43 6 39 4 87 87 NNE 8 13 29.91 1013 3 4 0.00 0.00
6:49 am 06:49 Cloudy with Drizzle 43 6 41 5 93 93 NE 6 9 29.88 1012 3 5 0.01 0.25
6:52 am 06:52 Cloudy with Drizzle 42 5.6 41 5 96 96 NE 9 15 29.86 1011 3 5 0.01 0.25
7:20 am 07:20 Cloudy with Drizzle 43 6 41 5 93 93 NE 8 13 29.85 1011 3 5 0.00 0.00
7:36 am 07:36 Cloudy with Drizzle 42 5.6 41 5 96 96 NE 7 11 29.83 1010 2 3 0.00 0.03
7:42 am 07:42 Cloudy with Drizzle 43 6 41 5 93 93 NE 8 13 29.83 1010 2 2 0.00 0.00
7:49 am 07:49 Cloudy with Drizzle 43 6 41 5 93 93 NNE 7 11 29.83 1010 2 2 0.01 0.25
7:52 am 07:52 Cloudy with Drizzle 42 5.6 41 5 96 96 NE 8 13 29.83 1010 2 2 0.01 0.25
8:10 am 08:10 Cloudy with Mist and Fog 43 6 43 6 100 100 NE 7 11 29.83 1010 2 3 0.00 0.00
8:45 am 08:45 Cloudy with Drizzle 43 6.1 42 5.6 97 97 NE 5 7 29.80 1009 2 2 0.03 0.76
8:52 am 08:52 Cloudy with Drizzle 43 6.1 42 5.6 97 97 NE 6 9 29.80 1009 2 2 0.04 1.02
8:59 am 08:59 Cloudy with Drizzle 44 6.7 43 6.1 96 96 NE 6 9 29.80 1009 2 2 0.01 0.25
9:17 am 09:17 Cloudy with Drizzle 44 6.7 43 6.1 96 96 NE 7 11 29.77 1008 2 3 0.01 0.25
9:21 am 09:21 Cloudy with Drizzle 44 6.7 43 6.1 96 96 NE 7 11 29.77 1008 3 5 0.01 0.25
9:52 am 09:52 Cloudy with Mist and Fog 45 7.2 44 6.7 97 97 N 5 7 29.75 1008 3 4 0.01 0.25
10:07 am 10:07 Cloudy with Light Rain 45 7.2 44 6.7 97 97 NE 5 7 29.74 1007 3 4 0.00 0.03
10:14 am 10:14 Cloudy with Light Rain 46 8 45 7 93 93 ENE 3 6 29.74 1007 2 3 0.00 0.00
10:52 am 10:52 Cloudy with Drizzle 47 8.3 46 7.8 97 97 NNE 7 11 29.70 1006 1 1 0.01 0.25
11:05 am 11:05 Cloudy with Light Rain 47 8.3 47 8.3 100 100 NNE 6 9 29.68 1005 1 1 0.00 0.03
11:16 am 11:16 Cloudy with Light Rain 48 9 48 9 100 100 Calm 29.68 1005 1 2 0.00 0.00
11:30 am 11:30 Cloudy with Light Rain 50 10 50 10 100 100 Calm 29.68 1005 2 3 0.00 0.00
11:52 am 11:52 Cloudy with Mist and Fog 52 11.1 51 10.6 97 97 Calm 29.65 1004 3 4 0.02 0.51
11:56 am 11:56 Cloudy with Mist and Fog 52 11 52 11 100 100 Calm 29.65 1004 4 6 0.00 0.00
12:06 pm 12:06 Cloudy with Mist and Fog 54 12 52 11 94 94 W 6 9 29.65 1004 4 6 0.00 0.00
12:36 pm 12:36 Cloudy with Mist and Fog 53 11.7 52 11.1 96 96 NNW 3 6 29.59 1002 5 8 0.00 0.00
12:52 pm 12:52 Cloudy with Mist and Fog 54 12.2 53 11.7 97 97 Calm 29.59 1002 5 8 0.00 0.00
1:28 pm 13:28 Cloudy with Mist and Fog 57 14 55 13 94 94 Calm 29.53 1000 5 8 0.00 0.00
1:52 pm 13:52 Cloudy with Light Rain 59 15 57 13.9 93 93 WSW 6 9 29.53 1000 6 10 0.00 0.03
2:15 pm 14:15 Cloudy with Light Rain 62 16.7 59 15 90 90 SSE 9 15 29.50 999 7 11 0.00 0.03
2:52 pm 14:52 Cloudy with Light Rain 65 18.3 61 16.1 87 87 SSE 15 24 29.47 998 10 16 0.00 0.03
3:36 pm 15:36 Cloudy with Rain 63 17 59 15 88 88 SE 18 30 29.44 997 4 6 0.00 0.00
3:44 pm 15:44 Cloudy with Rain 64 18 61 16 88 88 SSE 16 26 29.44 997 4 6 0.00 0.00
3:49 pm 15:49 Cloudy with Heavy Rain 63 17 61 16 94 94 SSE 20 31 29.41 996 2 3 0.09 2.29
3:52 pm 15:52 Cloudy with Heavy Rain 63 17 61 16 94 94 SE 16 26 29.41 996 2 2 0.00 0.00
4:04 pm 16:04 Cloudy with Rain 63 17 61 16 94 94 SSE 15 24 29.44 997 2 3 0.00 0.00
4:12 pm 16:12 Cloudy with Light Rain 64 18 63 17 94 94 SE 15 24 29.41 996 3 5 0.00 0.00
4:32 pm 16:32 Cloudy 64 18 63 17 94 94 SSE 22 35 29.38 995 10 16 0.00 0.00
4:34 pm 16:34 Cloudy 64 18 63 17 94 94 SSE 17 28 29.38 995 10 16 0.00 0.00
4:52 pm 16:52 Cloudy 64 17.8 61 16.1 90 90 SSE 18 30 29.36 994 10 16 0.13 3.30
5:42 pm 17:42 Cloudy with Thunderstorms 64 18 61 16 88 88 SSE 20 31 29.32 993 10 16 0.00 0.00
5:52 pm 17:52 Windy with Storms Likely 65 18.3 60 15.6 84 84 SE 21 33 29.30 992 10 16 0.00 0.03
5:55 pm 17:55 Windy with Storms Likely 65 18.3 60 15.6 84 84 SSE 22 35 29.32 993 10 16 0.00 0.03
6:06 pm 18:06 Cloudy with Thunderstorms 61 16 57 14 88 88 WSW 15 24 29.35 994 5 8 0.00 0.00
6:10 pm 18:10 Cloudy with Strong Thunderstorms 59 15 55 13 88 88 SW 17 28 29.35 994 3 5 0.00 0.00
6:12 pm 18:12 Cloudy with Strong Thunderstorms 59 15 55 13 88 88 WSW 15 24 29.32 993 3 5 0.00 0.00
6:14 pm 18:14 Cloudy with Thunderstorms 59 15 55 13 88 88 WSW 20 31 29.35 994 6 10 0.00 0.00
6:17 pm 18:17 Cloudy with Strong Thunderstorms 60 15.6 56 13.3 86 86 SW 32 52 29.35 994 2 3 0.11 2.79
6:19 pm 18:19 Cloudy with Strong Thunderstorms 59 15 57 13.9 93 93 SSW 29 46 29.32 993 2 2 0.13 3.30
6:24 pm 18:24 Cloudy with Thunderstorms 57 14 55 13 94 94 SSW 17 28 29.32 993 6 10 0.00 0.00
6:33 pm 18:33 Cloudy with Thunderstorms 60 15.6 57 13.9 90 90 SSW 15 24 29.32 993 5 8 0.37 9.40
6:48 pm 18:48 Cloudy with Strong Thunderstorms 59 15 57 14 94 94 WSW 9 15 29.32 993 3 4 0.00 0.00
6:52 pm 18:52 Cloudy with Strong Thunderstorms 60 15.6 58 14.4 93 93 SSW 13 20 29.32 993 2 3 0.54 13.72
6:59 pm 18:59 Cloudy with Thunderstorms 59 15 58 14.4 96 96 SSE 20 31 29.29 992 6 10 0.16 4.06
7:01 pm 19:01 Cloudy with Thunderstorms 59 15 57 13.9 93 93 S 24 39 29.32 993 6 10 0.16 4.06
7:04 pm 19:04 Windy with Storms Likely 59 15 57 14 94 94 SSE 20 31 29.29 992 6 10 0.00 0.00
7:13 pm 19:13 Mostly Cloudy with Light Rain 59 15 55 12.8 87 87 S 16 26 29.29 992 9 14 0.18 4.57
7:52 pm 19:52 Cloudy 62 16.7 56 13.3 80 80 S 13 20 29.29 992 10 16 0.18 4.57
8:52 pm 20:52 Mostly Cloudy 57 13.9 54 12.2 90 90 S 13 20 29.28 992 10 16 0.00 0.00
9:52 pm 21:52 Partly Cloudy 58 14.4 54 12.2 87 87 S 14 22 29.29 992 10 16 0.00 0.00
10:52 pm 22:52 Mostly Clear 61 16.1 55 12.8 81 81 SSW 14 22 29.29 992 10 16 0.00 0.00
11:52 pm 23:52 Mostly Clear 61 16.1 47 8.3 60 60 SW 22 35 29.30 992 10 16 0.00 0.00

Powered by AerisWeather